Time,TemperatureF,DewpointF,PressureIn,WindDirection,WindDirectionDegrees,WindSpeedMPH,WindSpeedGustMPH,Humidity,HourlyPrecipIn,Conditions,Clouds,dailyrainin,SolarRadiationWatts/m^2,SoftwareType,DateUTC
2017-12-18 00:03:00,36.1,30.8,30.09,NW,323,0.0,0.0,81,0.00,CLR,SCT,0.00,0.0,WeatherDisplay:10.37,2017-12-18 08:03:00,
2017-12-18 00:05:00,36.1,30.8,30.09,NW,323,0.0,0.0,81,0.00,CLR,SCT,0.00,0.0,WeatherDisplay:10.37,2017-12-18 08:05:00,
2017-12-18 00:08:00,36.0,30.7,30.09,NW,323,0.0,0.0,81,0.00,CLR,SCT,0.00,0.0,WeatherDisplay:10.37,2017-12-18 08:08:00,
2017-12-18 00:13:00,36.0,31.0,30.10,NW,323,0.0,0.0,82,0.00,CLR,SCT,0.00,0.0,WeatherDisplay:10.37,2017-12-18 08:13:00,
2017-12-18 00:14:00,36.0,31.0,30.10,NW,323,0.0,0.0,82,0.00,CLR,SCT,0.00,0.0,WeatherDisplay:10.37,2017-12-18 08:14:00,
2017-12-18 00:15:00,36.0,31.0,30.10,NW,323,0.0,0.0,82,0.00,CLR,SCT,0.00,0.0,WeatherDisplay:10.37,2017-12-18 08:15:00,
2017-12-18 00:20:00,36.0,31.0,30.10,NW,323,0.0,0.0,82,0.00,CLR,SCT,0.00,0.0,WeatherDisplay:10.37,2017-12-18 08:20:00,
2017-12-18 00:25:00,35.9,30.6,30.10,NW,323,0.0,0.0,81,0.00,CLR,SCT,0.00,0.0,WeatherDisplay:10.37,2017-12-18 08:25:00,
2017-12-18 00:28:00,35.8,30.5,30.10,NW,323,0.0,0.0,81,0.00,CLR,SCT,0.00,0.0,WeatherDisplay:10.37,2017-12-18 08:28:00,
2017-12-18 00:33:00,35.8,30.8,30.10,NW,323,0.0,0.0,82,0.00,CLR,SCT,0.00,0.0,WeatherDisplay:10.37,2017-12-18 08:33:00,
2017-12-18 00:34:00,35.8,30.5,30.10,NW,323,0.0,0.0,81,0.00,CLR,SCT,0.00,0.0,WeatherDisplay:10.37,2017-12-18 08:34:00,
2017-12-18 00:39:00,35.7,30.7,30.11,NW,323,0.0,0.0,82,0.00,CLR,SCT,0.00,0.0,WeatherDisplay:10.37,2017-12-18 08:39:00,
2017-12-18 00:40:00,35.7,30.7,30.11,NW,323,0.0,0.0,82,0.00,CLR,SCT,0.00,0.0,WeatherDisplay:10.37,2017-12-18 08:40:00,
2017-12-18 00:45:00,35.7,30.7,30.11,NW,323,0.0,0.0,82,0.00,CLR,SCT,0.00,0.0,WeatherDisplay:10.37,2017-12-18 08:45:00,
2017-12-18 00:50:00,35.5,30.5,30.11,NW,323,0.0,0.0,82,0.00,CLR,SCT,0.00,0.0,WeatherDisplay:10.37,2017-12-18 08:50:00,
2017-12-18 00:51:00,35.5,30.5,30.11,NW,323,0.0,0.0,82,0.00,CLR,SCT,0.00,0.0,WeatherDisplay:10.37,2017-12-18 08:51:00,
2017-12-18 00:52:00,35.5,30.5,30.11,NW,323,0.0,0.0,82,0.00,CLR,SCT,0.00,0.0,WeatherDisplay:10.37,2017-12-18 08:52:00,
2017-12-18 00:57:00,35.4,30.5,30.11,NW,323,0.0,0.0,82,0.00,CLR,SCT,0.00,0.0,WeatherDisplay:10.37,2017-12-18 08:57:00,
2017-12-18 01:01:00,35.3,30.4,30.12,NW,323,0.0,0.0,82,0.00,CLR,SCT,0.00,0.0,WeatherDisplay:10.37,2017-12-18 09:01:00,
2017-12-18 01:05:00,35.3,30.4,30.12,NW,323,0.0,0.0,82,0.00,CLR,SCT,0.00,0.0,WeatherDisplay:10.37,2017-12-18 09:05:00,
2017-12-18 01:07:00,35.2,30.3,30.12,NW,323,0.0,0.0,82,0.00,CLR,SCT,0.00,0.0,WeatherDisplay:10.37,2017-12-18 09:07:00,
2017-12-18 01:12:00,35.2,30.3,30.12,NW,323,0.0,0.0,82,0.00,CLR,SCT,0.00,0.0,WeatherDisplay:10.37,2017-12-18 09:12:00,
2017-12-18 01:13:00,35.2,30.3,30.12,NW,323,0.0,0.0,82,0.00,CLR,SCT,0.00,0.0,WeatherDisplay:10.37,2017-12-18 09:13:00,
2017-12-18 01:18:00,35.1,30.2,30.12,NW,323,0.0,0.0,82,0.00,CLR,SCT,0.00,0.0,WeatherDisplay:10.37,2017-12-18 09:18:00,
2017-12-18 01:23:00,35.1,30.5,30.12,NW,323,0.0,0.0,83,0.00,CLR,SCT,0.00,0.0,WeatherDisplay:10.37,2017-12-18 09:23:00,
2017-12-18 01:24:00,35.1,30.5,30.12,NW,323,0.0,0.0,83,0.00,CLR,SCT,0.00,0.0,WeatherDisplay:10.37,2017-12-18 09:24:00,
2017-12-18 01:29:00,35.0,30.4,30.12,NW,323,0.0,0.0,83,0.00,CLR,SCT,0.00,0.0,WeatherDisplay:10.37,2017-12-18 09:29:00,
2017-12-18 01:34:00,34.9,30.3,30.12,NW,323,0.0,0.0,83,0.00,CLR,SCT,0.00,0.0,WeatherDisplay:10.37,2017-12-18 09:34:00,
2017-12-18 01:35:00,34.9,30.3,30.12,NW,323,0.0,0.0,83,0.00,CLR,SCT,0.00,0.0,WeatherDisplay:10.37,2017-12-18 09:35:00,
2017-12-18 01:40:00,34.7,30.1,30.12,NW,323,0.0,0.0,83,0.00,CLR,SCT,0.00,0.0,WeatherDisplay:10.37,2017-12-18 09:40:00,
2017-12-18 01:42:00,34.7,30.1,30.12,NW,323,0.0,0.0,83,0.00,CLR,SCT,0.00,0.0,WeatherDisplay:10.37,2017-12-18 09:42:00,
2017-12-18 01:46:00,34.6,30.3,30.13,NW,323,0.0,0.0,84,0.00,CLR,SCT,0.00,0.0,WeatherDisplay:10.37,2017-12-18 09:46:00,
2017-12-18 01:47:00,34.6,30.3,30.13,NW,323,0.0,0.0,84,0.00,CLR,SCT,0.00,0.0,WeatherDisplay:10.37,2017-12-18 09:47:00,
2017-12-18 01:52:00,34.5,30.2,30.13,NW,323,0.0,0.0,84,0.00,CLR,SCT,0.00,0.0,WeatherDisplay:10.37,2017-12-18 09:52:00,
2017-12-18 01:55:00,34.5,30.2,30.13,NW,323,0.0,0.0,84,0.00,CLR,SCT,0.00,0.0,WeatherDisplay:10.37,2017-12-18 09:55:00,
2017-12-18 02:00:00,34.4,30.4,30.14,NW,323,0.0,0.0,85,0.00,CLR,SCT,0.00,0.0,WeatherDisplay:10.37,2017-12-18 10:00:00,
2017-12-18 02:05:00,34.4,30.4,30.14,NW,323,0.0,0.0,85,0.00,CLR,SCT,0.00,0.0,WeatherDisplay:10.37,2017-12-18 10:05:00,
2017-12-18 02:10:00,34.3,30.3,30.14,NW,323,0.0,0.0,85,0.00,CLR,SCT,0.00,0.0,WeatherDisplay:10.37,2017-12-18 10:10:00,
2017-12-18 02:11:00,34.3,30.3,30.14,NW,323,0.0,0.0,85,0.00,CLR,SCT,0.00,0.0,WeatherDisplay:10.37,2017-12-18 10:11:00,
2017-12-18 02:13:00,34.3,30.3,30.14,NW,323,0.0,0.0,85,0.00,CLR,SCT,0.00,0.0,WeatherDisplay:10.37,2017-12-18 10:13:00,
2017-12-18 02:17:00,34.3,30.3,30.14,NW,323,0.0,0.0,85,0.00,CLR,SCT,0.00,0.0,WeatherDisplay:10.37,2017-12-18 10:17:00,
2017-12-18 02:20:00,34.2,30.2,30.14,NW,323,0.0,0.0,85,0.00,CLR,SCT,0.00,0.0,WeatherDisplay:10.37,2017-12-18 10:20:00,
2017-12-18 02:22:00,34.2,30.2,30.14,NW,323,0.0,0.0,85,0.00,CLR,SCT,0.00,0.0,WeatherDisplay:10.37,2017-12-18 10:22:00,
2017-12-18 02:26:00,34.2,30.2,30.14,NW,323,0.0,0.0,85,0.00,CLR,SCT,0.00,0.0,WeatherDisplay:10.37,2017-12-18 10:26:00,
2017-12-18 02:28:00,34.2,30.2,30.14,NW,323,0.0,0.0,85,0.00,CLR,SCT,0.00,0.0,WeatherDisplay:10.37,2017-12-18 10:28:00,
2017-12-18 02:33:00,34.2,30.2,30.14,NW,323,0.0,0.0,85,0.00,CLR,SCT,0.00,0.0,WeatherDisplay:10.37,2017-12-18 10:33:00,
2017-12-18 02:35:00,34.2,30.2,30.14,NW,323,0.0,0.0,85,0.00,CLR,SCT,0.00,0.0,WeatherDisplay:10.37,2017-12-18 10:35:00,
2017-12-18 02:38:00,34.1,30.1,30.14,NW,323,0.0,0.0,85,0.00,CLR,SCT,0.00,0.0,WeatherDisplay:10.37,2017-12-18 10:38:00,
2017-12-18 02:41:00,34.0,30.0,30.15,NW,323,0.0,0.0,85,0.00,CLR,SCT,0.00,0.0,WeatherDisplay:10.37,2017-12-18 10:41:00,
2017-12-18 02:44:00,34.0,30.0,30.15,NW,323,0.0,0.0,85,0.00,CLR,SCT,0.00,0.0,WeatherDisplay:10.37,2017-12-18 10:44:00,
2017-12-18 02:46:00,33.9,29.9,30.14,NW,323,0.0,0.0,85,0.00,CLR,SCT,0.00,0.0,WeatherDisplay:10.37,2017-12-18 10:46:00,
2017-12-18 02:51:00,34.0,30.0,30.14,NW,323,0.0,0.0,85,0.00,CLR,SCT,0.00,0.0,WeatherDisplay:10.37,2017-12-18 10:51:00,
2017-12-18 02:56:00,34.0,30.0,30.15,NW,323,0.0,0.0,85,0.00,CLR,SCT,0.00,0.0,WeatherDisplay:10.37,2017-12-18 10:56:00,
2017-12-18 03:01:00,33.9,29.6,30.14,NW,323,0.0,0.0,84,0.00,CLR,SCT,0.00,0.0,WeatherDisplay:10.37,2017-12-18 11:01:00,
2017-12-18 03:02:00,33.9,29.6,30.15,NW,323,0.0,0.0,84,0.00,CLR,SCT,0.00,0.0,WeatherDisplay:10.37,2017-12-18 11:02:00,
2017-12-18 03:07:00,33.9,29.6,30.15,NW,324,0.0,0.0,84,0.00,CLR,SCT,0.00,0.0,WeatherDisplay:10.37,2017-12-18 11:07:00,
2017-12-18 03:09:00,33.9,29.6,30.15,NW,324,0.0,0.0,84,0.00,CLR,SCT,0.00,0.0,WeatherDisplay:10.37,2017-12-18 11:09:00,
2017-12-18 03:13:00,33.8,29.5,30.15,NW,324,0.0,0.0,84,0.00,CLR,SCT,0.00,0.0,WeatherDisplay:10.37,2017-12-18 11:13:00,
2017-12-18 03:17:00,33.7,29.4,30.15,NW,324,0.0,0.0,84,0.00,CLR,SCT,0.00,0.0,WeatherDisplay:10.37,2017-12-18 11:17:00,
2017-12-18 03:20:00,33.7,29.1,30.15,NW,324,0.0,0.0,83,0.00,CLR,SCT,0.00,0.0,WeatherDisplay:10.37,2017-12-18 11:20:00,
2017-12-18 03:23:00,33.7,29.1,30.15,NW,324,0.0,0.0,83,0.00,CLR,SCT,0.00,0.0,WeatherDisplay:10.37,2017-12-18 11:23:00,
2017-12-18 03:28:00,33.6,29.0,30.15,NW,324,0.0,0.0,83,0.00,CLR,SCT,0.00,0.0,WeatherDisplay:10.37,2017-12-18 11:28:00,
2017-12-18 03:33:00,33.5,28.6,30.15,NW,324,0.0,0.0,82,0.00,CLR,SCT,0.00,0.0,WeatherDisplay:10.37,2017-12-18 11:33:00,
2017-12-18 03:38:00,33.4,28.5,30.15,NW,324,0.0,0.0,82,0.00,CLR,SCT,0.00,0.0,WeatherDisplay:10.37,2017-12-18 11:38:00,
2017-12-18 03:39:00,33.4,28.5,30.15,NW,324,0.0,0.0,82,0.00,CLR,SCT,0.00,0.0,WeatherDisplay:10.37,2017-12-18 11:39:00,
2017-12-18 03:44:00,33.4,28.2,30.15,NW,324,0.0,0.0,81,0.00,CLR,SCT,0.00,0.0,WeatherDisplay:10.37,2017-12-18 11:44:00,
2017-12-18 03:49:00,33.4,28.5,30.14,NW,324,0.0,0.0,82,0.00,CLR,SCT,0.00,0.0,WeatherDisplay:10.37,2017-12-18 11:49:00,
2017-12-18 03:54:00,33.3,28.1,30.15,NW,324,0.0,0.0,81,0.00,CLR,SCT,0.00,0.0,WeatherDisplay:10.37,2017-12-18 11:54:00,
2017-12-18 03:57:00,33.3,28.1,30.15,NW,324,0.0,0.0,81,0.00,CLR,SCT,0.00,0.0,WeatherDisplay:10.37,2017-12-18 11:57:00,
2017-12-18 04:02:00,33.2,27.4,30.15,NW,324,0.0,0.0,79,0.00,CLR,SCT,0.00,0.0,WeatherDisplay:10.37,2017-12-18 12:02:00,
2017-12-18 04:07:00,33.2,27.7,30.15,NW,324,0.0,0.0,80,0.00,CLR,SCT,0.00,0.0,WeatherDisplay:10.37,2017-12-18 12:07:00,
2017-12-18 04:08:00,33.2,27.7,30.15,NW,324,0.0,0.0,80,0.00,CLR,SCT,0.00,0.0,WeatherDisplay:10.37,2017-12-18 12:08:00,
2017-12-18 04:13:00,33.1,27.6,30.15,NW,324,0.0,0.0,80,0.00,CLR,SCT,0.00,0.0,WeatherDisplay:10.37,2017-12-18 12:13:00,
2017-12-18 04:14:00,33.1,27.6,30.15,NW,324,0.0,0.0,80,0.00,CLR,SCT,0.00,0.0,WeatherDisplay:10.37,2017-12-18 12:14:00,
2017-12-18 04:15:00,33.1,27.6,30.15,NW,324,0.0,0.0,80,0.00,CLR,SCT,0.00,0.0,WeatherDisplay:10.37,2017-12-18 12:15:00,
2017-12-18 04:19:00,33.0,27.5,30.15,NW,324,0.0,0.0,80,0.00,CLR,SCT,0.00,0.0,WeatherDisplay:10.37,2017-12-18 12:19:00,
2017-12-18 04:24:00,32.9,27.4,30.15,NW,324,0.0,0.0,80,0.00,CLR,SCT,0.00,0.0,WeatherDisplay:10.37,2017-12-18 12:24:00,
2017-12-18 04:29:00,32.8,27.0,30.15,NW,324,0.0,0.0,79,0.00,CLR,SCT,0.00,0.0,WeatherDisplay:10.37,2017-12-18 12:29:00,
2017-12-18 04:30:00,32.8,27.0,30.15,NW,324,0.0,0.0,79,0.00,CLR,SCT,0.00,0.0,WeatherDisplay:10.37,2017-12-18 12:30:00,
2017-12-18 04:35:00,32.7,26.6,30.15,NW,324,0.0,0.0,78,0.00,CLR,SCT,0.00,0.0,WeatherDisplay:10.37,2017-12-18 12:35:00,
2017-12-18 04:39:00,32.6,26.8,30.15,NW,324,0.0,0.0,79,0.00,CLR,SCT,0.00,0.0,WeatherDisplay:10.37,2017-12-18 12:39:00,
2017-12-18 04:41:00,32.6,27.1,30.15,NW,324,0.0,0.0,80,0.00,CLR,SCT,0.00,0.0,WeatherDisplay:10.37,2017-12-18 12:41:00,
2017-12-18 04:45:00,32.6,26.5,30.15,NW,324,0.0,0.0,78,0.00,CLR,SCT,0.00,0.0,WeatherDisplay:10.37,2017-12-18 12:45:00,
2017-12-18 04:49:00,32.6,27.1,30.15,NW,324,0.0,0.0,80,0.00,CLR,SCT,0.00,0.0,WeatherDisplay:10.37,2017-12-18 12:49:00,
2017-12-18 04:51:00,32.5,27.3,30.15,NW,324,0.0,0.0,81,0.00,CLR,SCT,0.00,0.0,WeatherDisplay:10.37,2017-12-18 12:51:00,
2017-12-18 04:56:00,32.5,27.3,30.15,NW,324,0.0,0.0,81,0.00,CLR,SCT,0.00,0.0,WeatherDisplay:10.37,2017-12-18 12:56:00,
2017-12-18 04:57:00,32.5,27.3,30.15,NW,324,0.0,0.0,81,0.00,CLR,SCT,0.00,0.0,WeatherDisplay:10.37,2017-12-18 12:57:00,
2017-12-18 05:02:00,32.5,27.3,30.15,NW,324,0.0,0.0,81,0.00,CLR,SCT,0.00,0.0,WeatherDisplay:10.37,2017-12-18 13:02:00,
2017-12-18 05:03:00,32.5,27.3,30.15,NW,324,0.0,0.0,81,0.00,CLR,SCT,0.00,0.0,WeatherDisplay:10.37,2017-12-18 13:03:00,
2017-12-18 05:08:00,32.4,26.9,30.16,NW,324,0.0,0.0,80,0.00,CLR,SCT,0.00,0.0,WeatherDisplay:10.37,2017-12-18 13:08:00,
2017-12-18 05:13:00,32.4,27.2,30.16,NW,324,0.0,0.0,81,0.00,CLR,SCT,0.00,0.0,WeatherDisplay:10.37,2017-12-18 13:13:00,
2017-12-18 05:16:00,32.4,27.2,30.16,NW,324,0.0,0.0,81,0.00,CLR,SCT,0.00,0.0,WeatherDisplay:10.37,2017-12-18 13:16:00,
2017-12-18 05:21:00,32.5,27.3,30.16,NW,324,0.0,0.0,81,0.00,CLR,SCT,0.00,0.0,WeatherDisplay:10.37,2017-12-18 13:21:00,
2017-12-18 05:22:00,32.5,27.3,30.17,NW,324,0.0,0.0,81,0.00,CLR,SCT,0.00,0.0,WeatherDisplay:10.37,2017-12-18 13:22:00,
2017-12-18 05:27:00,32.6,27.1,30.17,NW,324,0.0,0.0,80,0.00,CLR,SCT,0.00,0.0,WeatherDisplay:10.37,2017-12-18 13:27:00,
2017-12-18 05:32:00,32.6,27.1,30.17,NW,324,0.0,0.0,80,0.00,CLR,SCT,0.00,0.0,WeatherDisplay:10.37,2017-12-18 13:32:00,
2017-12-18 05:33:00,32.6,27.1,30.17,NW,324,0.0,0.0,80,0.00,CLR,SCT,0.00,0.0,WeatherDisplay:10.37,2017-12-18 13:33:00,
2017-12-18 05:34:00,32.6,27.4,30.17,NW,324,0.0,0.0,81,0.00,CLR,SCT,0.00,0.0,WeatherDisplay:10.37,2017-12-18 13:34:00,
2017-12-18 05:39:00,32.6,27.1,30.17,NW,324,0.0,0.0,80,0.00,CLR,SCT,0.00,0.0,WeatherDisplay:10.37,2017-12-18 13:39:00,
2017-12-18 05:44:00,32.6,27.1,30.17,NW,324,0.0,0.0,80,0.00,CLR,SCT,0.00,0.0,WeatherDisplay:10.37,2017-12-18 13:44:00,
2017-12-18 05:49:00,32.6,27.1,30.17,NW,324,0.0,0.0,80,0.00,CLR,SCT,0.00,0.0,WeatherDisplay:10.37,2017-12-18 13:49:00,
2017-12-18 05:50:00,32.6,27.1,30.17,NW,324,0.0,0.0,80,0.00,CLR,SCT,0.00,0.0,WeatherDisplay:10.37,2017-12-18 13:50:00,
2017-12-18 05:55:00,32.5,27.0,30.17,NW,324,0.0,0.0,80,0.00,CLR,SCT,0.00,0.0,WeatherDisplay:10.37,2017-12-18 13:55:00,
2017-12-18 06:00:00,32.5,27.0,30.17,NW,324,0.0,0.0,80,0.00,CLR,SCT,0.00,0.0,WeatherDisplay:10.37,2017-12-18 14:00:00,
2017-12-18 06:02:00,32.5,27.0,30.17,NW,324,0.0,0.0,80,0.00,CLR,SCT,0.00,0.0,WeatherDisplay:10.37,2017-12-18 14:02:00,
2017-12-18 06:06:00,32.4,26.6,30.17,NW,324,0.0,0.0,79,0.00,CLR,SCT,0.00,0.0,WeatherDisplay:10.37,2017-12-18 14:06:00,
2017-12-18 06:11:00,32.4,27.2,30.17,NW,324,0.0,0.0,81,0.00,CLR,SCT,0.00,0.0,WeatherDisplay:10.37,2017-12-18 14:11:00,
2017-12-18 06:13:00,32.4,27.2,30.17,NW,324,0.0,0.0,81,0.00,CLR,SCT,0.00,0.0,WeatherDisplay:10.37,2017-12-18 14:13:00,
2017-12-18 06:17:00,32.4,26.9,30.17,NW,324,0.0,0.0,80,0.00,CLR,SCT,0.00,0.0,WeatherDisplay:10.37,2017-12-18 14:17:00,
2017-12-18 06:18:00,32.3,26.8,30.17,NW,324,0.0,0.0,80,0.00,CLR,SCT,0.00,0.0,WeatherDisplay:10.37,2017-12-18 14:18:00,
2017-12-18 06:24:00,32.3,26.8,30.17,NW,324,0.0,0.0,80,0.00,CLR,SCT,0.00,0.0,WeatherDisplay:10.37,2017-12-18 14:24:00,
2017-12-18 06:29:00,32.3,26.8,30.17,NW,324,0.0,0.0,80,0.00,CLR,SCT,0.00,0.0,WeatherDisplay:10.37,2017-12-18 14:29:00,
2017-12-18 06:33:00,32.2,26.7,30.17,NW,324,0.0,0.0,80,0.00,CLR,SCT,0.00,0.0,WeatherDisplay:10.37,2017-12-18 14:33:00,
2017-12-18 06:35:00,32.3,26.8,30.18,NW,324,0.0,0.0,80,0.00,CLR,SCT,0.00,0.0,WeatherDisplay:10.37,2017-12-18 14:35:00,
2017-12-18 06:40:00,32.2,27.0,30.18,NW,324,0.0,0.0,81,0.00,CLR,SCT,0.00,0.0,WeatherDisplay:10.37,2017-12-18 14:40:00,
2017-12-18 06:45:00,32.1,26.9,30.18,NW,324,0.0,0.0,81,0.00,CLR,SCT,0.00,0.0,WeatherDisplay:10.37,2017-12-18 14:45:00,
2017-12-18 06:47:00,32.1,26.9,30.18,NW,324,0.0,0.0,81,0.00,CLR,SCT,0.00,0.0,WeatherDisplay:10.37,2017-12-18 14:47:00,
2017-12-18 06:52:00,32.1,26.9,30.18,NW,324,0.0,0.0,81,0.00,CLR,SCT,0.00,0.0,WeatherDisplay:10.37,2017-12-18 14:52:00,
2017-12-18 06:54:00,32.1,26.9,30.18,NW,324,0.0,0.0,81,0.00,CLR,SCT,0.00,0.0,WeatherDisplay:10.37,2017-12-18 14:54:00,
2017-12-18 06:57:00,32.0,26.8,30.18,NW,324,0.0,0.0,81,0.00,CLR,SCT,0.00,0.0,WeatherDisplay:10.37,2017-12-18 14:57:00,
2017-12-18 07:02:00,32.0,27.1,30.18,NW,324,0.0,0.0,82,0.00,CLR,SCT,0.00,0.0,WeatherDisplay:10.37,2017-12-18 15:02:00,
2017-12-18 07:03:00,32.0,27.1,30.18,NW,324,0.0,0.0,82,0.00,CLR,SCT,0.00,0.0,WeatherDisplay:10.37,2017-12-18 15:03:00,
2017-12-18 07:08:00,32.0,26.8,30.18,NW,324,0.0,0.0,81,0.00,CLR,SCT,0.00,0.0,WeatherDisplay:10.37,2017-12-18 15:08:00,
2017-12-18 07:09:00,32.0,26.8,30.18,NW,324,0.0,0.0,81,0.00,CLR,SCT,0.00,0.0,WeatherDisplay:10.37,2017-12-18 15:09:00,
2017-12-18 07:11:00,32.0,27.1,30.18,NW,324,0.0,0.0,82,0.00,CLR,SCT,0.00,0.0,WeatherDisplay:10.37,2017-12-18 15:11:00,
2017-12-18 07:15:00,31.9,27.0,30.19,NW,324,0.0,0.0,82,0.00,CLR,SCT,0.00,0.0,WeatherDisplay:10.37,2017-12-18 15:15:00,
2017-12-18 07:17:00,31.9,26.7,30.19,NW,324,0.0,0.0,81,0.00,CLR,SCT,0.00,0.0,WeatherDisplay:10.37,2017-12-18 15:17:00,
2017-12-18 07:21:00,31.9,26.7,30.19,NW,324,0.0,0.0,81,0.00,CLR,SCT,0.00,0.0,WeatherDisplay:10.37,2017-12-18 15:21:00,
2017-12-18 07:26:00,31.9,27.0,30.19,NW,324,0.0,0.0,82,0.00,CLR,SCT,0.00,0.0,WeatherDisplay:10.37,2017-12-18 15:26:00,
2017-12-18 07:31:00,31.9,27.0,30.19,NW,324,0.0,0.0,82,0.00,CLR,SCT,0.00,0.0,WeatherDisplay:10.37,2017-12-18 15:31:00,
2017-12-18 07:33:00,31.9,27.0,30.19,NW,324,0.0,0.0,82,0.00,CLR,SCT,0.00,0.0,WeatherDisplay:10.37,2017-12-18 15:33:00,
2017-12-18 07:34:00,31.9,27.0,30.19,NW,324,0.0,0.0,82,0.00,CLR,SCT,0.00,0.0,WeatherDisplay:10.37,2017-12-18 15:34:00,
2017-12-18 07:39:00,31.8,26.6,30.19,NW,324,0.0,0.0,81,0.00,CLR,SCT,0.00,0.0,WeatherDisplay:10.37,2017-12-18 15:39:00,
2017-12-18 07:40:00,31.9,27.0,30.19,NW,324,0.0,0.0,82,0.00,CLR,SCT,0.00,0.0,WeatherDisplay:10.37,2017-12-18 15:40:00,
2017-12-18 07:43:00,31.9,27.0,30.19,NW,324,0.0,0.0,82,0.00,CLR,SCT,0.00,0.0,WeatherDisplay:10.37,2017-12-18 15:43:00,
2017-12-18 07:45:00,31.9,26.7,30.19,NW,324,0.0,0.0,81,0.00,CLR,SCT,0.00,0.0,WeatherDisplay:10.37,2017-12-18 15:45:00,
2017-12-18 07:49:00,31.9,27.0,30.19,NW,324,0.0,0.0,82,0.00,CLR,SCT,0.00,0.0,WeatherDisplay:10.37,2017-12-18 15:49:00,
2017-12-18 07:51:00,31.8,26.9,30.19,NW,324,0.0,0.0,82,0.00,CLR,SCT,0.00,0.0,WeatherDisplay:10.37,2017-12-18 15:51:00,
2017-12-18 07:56:00,31.9,27.0,30.19,NW,324,0.0,0.0,82,0.00,CLR,SCT,0.00,0.0,WeatherDisplay:10.37,2017-12-18 15:56:00,
2017-12-18 08:01:00,32.0,27.1,30.19,NW,324,0.0,0.0,82,0.00,CLR,SCT,0.00,0.0,WeatherDisplay:10.37,2017-12-18 16:01:00,
2017-12-18 08:02:00,32.0,27.1,30.19,NW,324,0.0,0.0,82,0.00,CLR,SCT,0.00,0.0,WeatherDisplay:10.37,2017-12-18 16:02:00,
2017-12-18 08:03:00,32.0,27.1,30.19,NW,324,0.0,0.0,82,0.00,CLR,SCT,0.00,0.0,WeatherDisplay:10.37,2017-12-18 16:03:00,
2017-12-18 08:08:00,32.0,27.1,30.19,NW,324,0.0,0.0,82,0.00,CLR,SCT,0.00,0.0,WeatherDisplay:10.37,2017-12-18 16:08:00,
2017-12-18 08:09:00,32.0,27.1,30.19,NW,324,0.0,0.0,82,0.00,CLR,SCT,0.00,0.0,WeatherDisplay:10.37,2017-12-18 16:09:00,
2017-12-18 08:12:00,32.0,27.1,30.19,NW,324,0.0,0.0,82,0.00,CLR,SCT,0.00,0.0,WeatherDisplay:10.37,2017-12-18 16:12:00,
2017-12-18 08:17:00,32.0,27.1,30.19,NW,324,0.0,0.0,82,0.00,CLR,SCT,0.00,0.0,WeatherDisplay:10.37,2017-12-18 16:17:00,
2017-12-18 08:18:00,32.0,27.1,30.19,NW,324,0.0,0.0,82,0.00,CLR,SCT,0.00,0.0,WeatherDisplay:10.37,2017-12-18 16:18:00,
2017-12-18 08:23:00,32.0,27.1,30.20,NW,324,0.0,0.0,82,0.00,CLR,SCT,0.00,0.0,WeatherDisplay:10.37,2017-12-18 16:23:00,
2017-12-18 08:25:00,32.0,27.1,30.20,NW,324,0.0,0.0,82,0.00,CLR,SCT,0.00,0.0,WeatherDisplay:10.37,2017-12-18 16:25:00,
2017-12-18 08:28:00,32.1,27.2,30.20,NW,324,0.0,0.0,82,0.00,CLR,SCT,0.00,0.0,WeatherDisplay:10.37,2017-12-18 16:28:00,
2017-12-18 08:30:00,32.1,27.2,30.20,NW,324,0.0,0.0,82,0.00,CLR,SCT,0.00,0.0,WeatherDisplay:10.37,2017-12-18 16:30:00,
2017-12-18 08:35:00,32.2,27.6,30.20,NW,324,0.0,0.0,83,0.00,CLR,SCT,0.00,0.0,WeatherDisplay:10.37,2017-12-18 16:35:00,
2017-12-18 08:37:00,32.2,27.6,30.20,NW,324,0.0,0.0,83,0.00,CLR,SCT,0.00,0.0,WeatherDisplay:10.37,2017-12-18 16:37:00,
2017-12-18 08:42:00,32.3,27.7,30.20,NW,324,0.0,0.0,83,0.00,CLR,SCT,0.00,0.0,WeatherDisplay:10.37,2017-12-18 16:42:00,
2017-12-18 08:44:00,32.4,27.8,30.20,NW,324,0.0,0.0,83,0.00,CLR,SCT,0.00,0.0,WeatherDisplay:10.37,2017-12-18 16:44:00,
2017-12-18 08:48:00,32.4,27.8,30.20,NW,324,0.0,0.0,83,0.00,CLR,SCT,0.00,0.0,WeatherDisplay:10.37,2017-12-18 16:48:00,
2017-12-18 08:49:00,32.5,27.9,30.20,NW,324,0.0,0.0,83,0.00,CLR,SCT,0.00,0.0,WeatherDisplay:10.37,2017-12-18 16:49:00,
2017-12-18 08:54:00,32.6,28.0,30.20,NW,324,0.0,0.0,83,0.00,CLR,SCT,0.00,0.0,WeatherDisplay:10.37,2017-12-18 16:54:00,
2017-12-18 08:59:00,32.8,28.2,30.20,NW,324,0.0,0.0,83,0.00,CLR,SCT,0.00,0.0,WeatherDisplay:10.37,2017-12-18 16:59:00,
2017-12-18 09:04:00,33.0,28.7,30.20,NW,324,0.0,0.0,84,0.00,CLR,SCT,0.00,0.0,WeatherDisplay:10.37,2017-12-18 17:04:00,
2017-12-18 09:05:00,33.0,28.7,30.20,NW,324,0.0,0.0,84,0.00,CLR,SCT,0.00,0.0,WeatherDisplay:10.37,2017-12-18 17:05:00,
2017-12-18 09:10:00,33.3,29.0,30.20,NW,324,0.0,0.0,84,0.00,CLR,SCT,0.00,0.0,WeatherDisplay:10.37,2017-12-18 17:10:00,
2017-12-18 09:13:00,33.4,29.1,30.20,NW,324,0.0,0.0,84,0.00,CLR,SCT,0.00,0.0,WeatherDisplay:10.37,2017-12-18 17:13:00,
2017-12-18 09:16:00,33.6,29.6,30.20,NW,324,0.0,0.0,85,0.00,CLR,SCT,0.00,0.0,WeatherDisplay:10.37,2017-12-18 17:16:00,
2017-12-18 09:18:00,33.7,29.7,30.20,NW,324,0.0,0.0,85,0.00,CLR,SCT,0.00,0.0,WeatherDisplay:10.37,2017-12-18 17:18:00,
2017-12-18 09:21:00,33.9,29.9,30.20,NW,324,0.0,0.0,85,0.00,CLR,SCT,0.00,0.0,WeatherDisplay:10.37,2017-12-18 17:21:00,
2017-12-18 09:26:00,34.4,30.4,30.20,NW,324,0.0,0.0,85,0.00,CLR,SCT,0.00,0.0,WeatherDisplay:10.37,2017-12-18 17:26:00,
2017-12-18 09:27:00,34.5,30.5,30.20,NW,324,0.0,0.0,85,0.00,CLR,SCT,0.00,0.0,WeatherDisplay:10.37,2017-12-18 17:27:00,
2017-12-18 09:28:00,34.5,30.5,30.20,NW,324,0.0,0.0,85,0.00,CLR,SCT,0.00,0.0,WeatherDisplay:10.37,2017-12-18 17:28:00,
2017-12-18 09:33:00,35.0,30.9,30.20,NW,324,0.0,0.0,85,0.00,CLR,SCT,0.00,0.0,WeatherDisplay:10.37,2017-12-18 17:33:00,
2017-12-18 09:38:00,35.4,31.6,30.20,NW,324,0.0,0.0,86,0.00,CLR,SCT,0.00,0.0,WeatherDisplay:10.37,2017-12-18 17:38:00,
2017-12-18 09:44:00,35.9,32.1,30.20,NW,324,0.0,0.0,86,0.00,CLR,SCT,0.00,0.0,WeatherDisplay:10.37,2017-12-18 17:44:00,
2017-12-18 09:49:00,36.5,32.4,30.20,NW,324,0.0,0.0,85,0.00,CLR,SCT,0.00,0.0,WeatherDisplay:10.37,2017-12-18 17:49:00,
2017-12-18 09:50:00,36.6,32.5,30.20,NW,324,0.0,0.0,85,0.00,CLR,SCT,0.00,0.0,WeatherDisplay:10.37,2017-12-18 17:50:00,
2017-12-18 09:51:00,36.7,32.6,30.20,NW,324,0.0,0.0,85,0.00,CLR,SCT,0.00,0.0,WeatherDisplay:10.37,2017-12-18 17:51:00,
2017-12-18 09:55:00,37.2,32.8,30.21,NW,324,0.0,0.0,84,0.00,CLR,SCT,0.00,0.0,WeatherDisplay:10.37,2017-12-18 17:55:00,
2017-12-18 09:56:00,37.4,33.0,30.21,NW,324,0.0,0.0,84,0.00,CLR,SCT,0.00,0.0,WeatherDisplay:10.37,2017-12-18 17:56:00,
2017-12-18 10:01:00,37.9,33.5,30.20,NW,324,0.0,0.0,84,0.00,CLR,SCT,0.00,0.0,WeatherDisplay:10.37,2017-12-18 18:01:00,
2017-12-18 10:05:00,38.3,33.6,30.21,NW,324,0.0,0.0,83,0.00,CLR,SCT,0.00,0.0,WeatherDisplay:10.37,2017-12-18 18:05:00,
2017-12-18 10:07:00,38.6,33.6,30.20,NW,324,0.0,0.0,82,0.00,CLR,SCT,0.00,0.0,WeatherDisplay:10.37,2017-12-18 18:07:00,
2017-12-18 10:10:00,39.0,33.7,30.20,NW,324,0.0,0.0,81,0.00,CLR,SCT,0.00,0.0,WeatherDisplay:10.37,2017-12-18 18:10:00,
2017-12-18 10:11:00,39.0,33.7,30.20,NW,324,0.0,0.0,81,0.00,CLR,SCT,0.00,0.0,WeatherDisplay:10.37,2017-12-18 18:11:00,
2017-12-18 10:16:00,39.7,34.0,30.20,NW,324,0.0,0.0,80,0.00,CLR,SCT,0.00,0.0,WeatherDisplay:10.37,2017-12-18 18:16:00,
2017-12-18 10:17:00,39.7,34.0,30.20,NW,324,0.0,0.0,80,0.00,CLR,SCT,0.00,0.0,WeatherDisplay:10.37,2017-12-18 18:17:00,
2017-12-18 10:22:00,40.2,34.5,30.20,NW,324,0.0,0.0,80,0.00,CLR,SCT,0.00,0.0,WeatherDisplay:10.37,2017-12-18 18:22:00,
2017-12-18 10:23:00,40.3,34.3,30.20,NW,324,0.0,0.0,79,0.00,CLR,SCT,0.00,0.0,WeatherDisplay:10.37,2017-12-18 18:23:00,
2017-12-18 10:27:00,40.7,34.7,30.20,NW,324,0.0,0.0,79,0.00,CLR,SCT,0.00,0.0,WeatherDisplay:10.37,2017-12-18 18:27:00,
2017-12-18 10:28:00,40.7,34.7,30.20,NW,324,0.0,0.0,79,0.00,CLR,SCT,0.00,0.0,WeatherDisplay:10.37,2017-12-18 18:28:00,
2017-12-18 10:33:00,41.1,34.4,30.20,NW,324,0.0,0.0,77,0.00,CLR,SCT,0.00,0.0,WeatherDisplay:10.37,2017-12-18 18:33:00,
2017-12-18 10:35:00,41.3,34.6,30.20,NW,324,0.0,0.0,77,0.00,CLR,SCT,0.00,0.0,WeatherDisplay:10.37,2017-12-18 18:35:00,
2017-12-18 10:40:00,41.8,34.5,30.20,NW,324,0.0,0.0,75,0.00,CLR,SCT,0.00,0.0,WeatherDisplay:10.37,2017-12-18 18:40:00,
2017-12-18 10:43:00,42.0,34.3,30.20,NW,324,0.0,0.0,74,0.00,CLR,SCT,0.00,0.0,WeatherDisplay:10.37,2017-12-18 18:43:00,
2017-12-18 10:45:00,42.2,34.2,30.19,NW,324,0.0,0.0,73,0.00,CLR,SCT,0.00,0.0,WeatherDisplay:10.37,2017-12-18 18:45:00,
2017-12-18 10:49:00,42.6,33.5,30.19,NW,324,0.0,0.0,70,0.00,CLR,SCT,0.00,0.0,WeatherDisplay:10.37,2017-12-18 18:49:00,
2017-12-18 10:54:00,43.1,33.6,30.19,NW,324,0.0,0.0,69,0.00,CLR,SCT,0.00,0.0,WeatherDisplay:10.37,2017-12-18 18:54:00,
2017-12-18 10:55:00,43.3,33.8,30.19,NW,324,0.0,0.0,69,0.00,CLR,SCT,0.00,0.0,WeatherDisplay:10.37,2017-12-18 18:55:00,
2017-12-18 11:00:00,43.8,33.2,30.19,NW,324,0.0,0.0,66,0.00,CLR,SCT,0.00,0.0,WeatherDisplay:10.37,2017-12-18 19:00:00,
2017-12-18 11:01:00,43.8,33.2,30.19,NW,324,0.0,0.0,66,0.00,CLR,SCT,0.00,0.0,WeatherDisplay:10.37,2017-12-18 19:01:00,
2017-12-18 11:06:00,44.3,31.7,30.19,NW,324,0.0,0.0,61,0.00,CLR,SCT,0.00,0.0,WeatherDisplay:10.37,2017-12-18 19:06:00,
2017-12-18 11:08:00,44.5,31.9,30.19,NW,324,0.0,0.0,61,0.00,CLR,SCT,0.00,0.0,WeatherDisplay:10.37,2017-12-18 19:08:00,
2017-12-18 11:09:00,44.6,32.0,30.19,NW,324,0.0,0.0,61,0.00,CLR,SCT,0.00,0.0,WeatherDisplay:10.37,2017-12-18 19:09:00,
2017-12-18 11:13:00,44.9,31.4,30.18,NNW,348,0.0,0.0,59,0.00,CLR,SCT,0.00,0.0,WeatherDisplay:10.37,2017-12-18 19:13:00,
2017-12-18 11:18:00,45.5,28.4,30.18,East,86,2.3,2.3,51,0.00,CLR,SCT,0.00,0.0,WeatherDisplay:10.37,2017-12-18 19:18:00,
2017-12-18 11:23:00,46.4,28.8,30.18,East,86,2.3,2.3,50,0.00,CLR,SCT,0.00,0.0,WeatherDisplay:10.37,2017-12-18 19:23:00,
2017-12-18 11:25:00,46.6,29.9,30.18,East,90,3.5,3.5,52,0.00,CLR,SCT,0.00,0.0,WeatherDisplay:10.37,2017-12-18 19:25:00,
2017-12-18 11:30:00,47.5,27.7,30.18,East,98,2.3,2.3,46,0.00,CLR,SCT,0.00,0.0,WeatherDisplay:10.37,2017-12-18 19:30:00,
2017-12-18 11:31:00,47.7,28.4,30.18,East,98,2.3,2.3,47,0.00,CLR,SCT,0.00,0.0,WeatherDisplay:10.37,2017-12-18 19:31:00,
2017-12-18 11:36:00,48.1,29.8,30.18,East,98,0.0,0.0,49,0.00,CLR,SCT,0.00,0.0,WeatherDisplay:10.37,2017-12-18 19:36:00,
2017-12-18 11:37:00,48.2,29.9,30.18,East,98,0.0,0.0,49,0.00,CLR,SCT,0.00,0.0,WeatherDisplay:10.37,2017-12-18 19:37:00,
2017-12-18 11:40:00,48.3,29.0,30.18,East,101,2.3,2.3,47,0.00,CLR,SCT,0.00,0.0,WeatherDisplay:10.37,2017-12-18 19:40:00,
2017-12-18 11:42:00,48.3,27.9,30.18,East,100,2.3,2.3,45,0.00,CLR,SCT,0.00,0.0,WeatherDisplay:10.37,2017-12-18 19:42:00,
2017-12-18 11:47:00,49.1,28.7,30.17,SE,130,3.5,3.5,45,0.00,CLR,SCT,0.00,0.0,WeatherDisplay:10.37,2017-12-18 19:47:00,
2017-12-18 11:48:00,49.3,28.8,30.18,SE,130,3.5,3.5,45,0.00,CLR,SCT,0.00,0.0,WeatherDisplay:10.37,2017-12-18 19:48:00,
2017-12-18 11:53:00,50.0,26.6,30.17,East,101,5.8,5.8,40,0.00,CLR,SCT,0.00,0.0,WeatherDisplay:10.37,2017-12-18 19:53:00,
2017-12-18 11:55:00,50.2,28.0,30.17,ESE,115,3.5,3.5,42,0.00,CLR,SCT,0.00,0.0,WeatherDisplay:10.37,2017-12-18 19:55:00,
2017-12-18 11:58:00,50.4,27.6,30.17,ESE,110,3.0,3.0,41,0.00,CLR,SCT,0.00,0.0,WeatherDisplay:10.37,2017-12-18 19:58:00,
2017-12-18 12:01:00,50.6,30.0,30.17,SE,126,1.1,1.1,45,0.00,CLR,SCT,0.00,0.0,WeatherDisplay:10.37,2017-12-18 20:01:00,
2017-12-18 12:06:00,50.8,31.3,30.17,SE,126,0.0,0.0,47,0.00,CLR,SCT,0.00,0.0,WeatherDisplay:10.37,2017-12-18 20:06:00,
2017-12-18 12:07:00,50.8,31.3,30.16,SE,126,0.0,0.0,47,0.00,CLR,SCT,0.00,0.0,WeatherDisplay:10.37,2017-12-18 20:07:00,
2017-12-18 12:12:00,50.8,30.2,30.16,SE,126,2.3,2.3,45,0.00,CLR,SCT,0.00,0.0,WeatherDisplay:10.37,2017-12-18 20:12:00,
2017-12-18 12:13:00,50.8,30.2,30.16,SE,126,3.5,3.5,45,0.00,CLR,SCT,0.00,0.0,WeatherDisplay:10.37,2017-12-18 20:13:00,
2017-12-18 12:15:00,50.7,27.8,30.16,ESE,117,3.5,3.5,41,0.00,CLR,SCT,0.00,0.0,WeatherDisplay:10.37,2017-12-18 20:15:00,
2017-12-18 12:18:00,50.8,27.9,30.16,ESE,102,3.5,3.5,41,0.00,CLR,SCT,0.00,0.0,WeatherDisplay:10.37,2017-12-18 20:18:00,
2017-12-18 12:22:00,51.0,30.9,30.16,ESE,102,0.0,0.0,46,0.00,CLR,SCT,0.00,0.0,WeatherDisplay:10.37,2017-12-18 20:22:00,
2017-12-18 12:24:00,50.9,30.8,30.15,ESE,102,0.0,0.0,46,0.00,CLR,SCT,0.00,0.0,WeatherDisplay:10.37,2017-12-18 20:24:00,
2017-12-18 12:28:00,50.8,29.6,30.15,ESE,102,0.0,0.0,44,0.00,CLR,SCT,0.00,0.0,WeatherDisplay:10.37,2017-12-18 20:28:00,
2017-12-18 12:31:00,50.8,30.7,30.15,ESE,102,0.0,0.0,46,0.00,CLR,SCT,0.00,0.0,WeatherDisplay:10.37,2017-12-18 20:31:00,
2017-12-18 12:33:00,50.7,31.2,30.15,ESE,102,0.0,0.0,47,0.00,CLR,SCT,0.00,0.0,WeatherDisplay:10.37,2017-12-18 20:33:00,
2017-12-18 12:38:00,50.6,30.6,30.15,West,279,2.3,2.3,46,0.00,CLR,SCT,0.00,0.0,WeatherDisplay:10.37,2017-12-18 20:38:00,
2017-12-18 12:40:00,50.7,29.6,30.15,ESE,105,3.5,3.5,44,0.00,CLR,SCT,0.00,0.0,WeatherDisplay:10.37,2017-12-18 20:40:00,
2017-12-18 12:41:00,50.7,29.6,30.15,ESE,105,3.5,3.5,44,0.00,CLR,SCT,0.00,0.0,WeatherDisplay:10.37,2017-12-18 20:41:00,
2017-12-18 12:46:00,51.2,30.0,30.15,ESE,105,1.1,1.1,44,0.00,CLR,SCT,0.00,0.0,WeatherDisplay:10.37,2017-12-18 20:46:00,
2017-12-18 12:51:00,51.9,32.3,30.15,ESE,105,2.3,2.3,47,0.00,CLR,SCT,0.00,0.0,WeatherDisplay:10.37,2017-12-18 20:51:00,
2017-12-18 12:53:00,52.1,32.5,30.15,ESE,105,2.3,2.3,47,0.00,CLR,SCT,0.00,0.0,WeatherDisplay:10.37,2017-12-18 20:53:00,
2017-12-18 12:55:00,52.3,32.6,30.15,ESE,105,2.3,2.3,47,0.00,CLR,SCT,0.00,0.0,WeatherDisplay:10.37,2017-12-18 20:55:00,
2017-12-18 13:00:00,52.7,32.5,30.15,East,98,1.1,1.1,46,0.00,CLR,SCT,0.00,0.0,WeatherDisplay:10.37,2017-12-18 21:00:00,
2017-12-18 13:01:00,52.7,32.5,30.15,East,98,1.1,1.1,46,0.00,CLR,SCT,0.00,0.0,WeatherDisplay:10.37,2017-12-18 21:01:00,
2017-12-18 13:06:00,52.9,31.6,30.15,East,96,0.0,0.0,44,0.00,CLR,SCT,0.00,0.0,WeatherDisplay:10.37,2017-12-18 21:06:00,
2017-12-18 13:07:00,52.9,30.4,30.15,East,96,0.0,0.0,42,0.00,CLR,SCT,0.00,0.0,WeatherDisplay:10.37,2017-12-18 21:07:00,
2017-12-18 13:08:00,53.0,32.2,30.15,East,96,0.0,0.0,45,0.00,CLR,SCT,0.00,0.0,WeatherDisplay:10.37,2017-12-18 21:08:00,
2017-12-18 13:13:00,53.3,32.5,30.14,ESE,105,0.0,0.0,45,0.00,CLR,SCT,0.00,0.0,WeatherDisplay:10.37,2017-12-18 21:13:00,
2017-12-18 13:18:00,53.7,31.1,30.14,East,101,3.5,3.5,42,0.00,CLR,SCT,0.00,0.0,WeatherDisplay:10.37,2017-12-18 21:18:00,
2017-12-18 13:20:00,53.8,30.6,30.14,ESE,112,3.5,3.5,41,0.00,CLR,SCT,0.00,0.0,WeatherDisplay:10.37,2017-12-18 21:20:00,
2017-12-18 13:21:00,53.8,30.0,30.14,ESE,112,5.8,5.8,40,0.00,CLR,SCT,0.00,0.0,WeatherDisplay:10.37,2017-12-18 21:21:00,
2017-12-18 13:26:00,54.0,31.4,30.14,ESE,122,3.5,3.5,42,0.00,CLR,SCT,0.00,0.0,WeatherDisplay:10.37,2017-12-18 21:26:00,
2017-12-18 13:31:00,54.0,29.6,30.14,ESE,103,3.5,3.5,39,0.00,CLR,SCT,0.00,0.0,WeatherDisplay:10.37,2017-12-18 21:31:00,
2017-12-18 13:32:00,54.1,29.7,30.14,East,99,2.3,2.3,39,0.00,CLR,SCT,0.00,0.0,WeatherDisplay:10.37,2017-12-18 21:32:00,
2017-12-18 13:36:00,54.1,29.7,30.14,East,96,3.5,3.5,39,0.00,CLR,SCT,0.00,0.0,WeatherDisplay:10.37,2017-12-18 21:36:00,
2017-12-18 13:37:00,54.0,29.6,30.14,ESE,117,3.5,3.5,39,0.00,CLR,SCT,0.00,0.0,WeatherDisplay:10.37,2017-12-18 21:37:00,
2017-12-18 13:42:00,53.7,31.7,30.14,ESE,117,2.3,2.3,43,0.00,CLR,SCT,0.00,0.0,WeatherDisplay:10.37,2017-12-18 21:42:00,
2017-12-18 13:44:00,53.6,32.2,30.14,ESE,117,3.5,3.5,44,0.00,CLR,SCT,0.00,0.0,WeatherDisplay:10.37,2017-12-18 21:44:00,
2017-12-18 13:48:00,53.2,32.4,30.14,ESE,117,2.3,2.3,45,0.00,CLR,SCT,0.00,0.0,WeatherDisplay:10.37,2017-12-18 21:48:00,
2017-12-18 13:53:00,52.7,29.6,30.14,ESE,123,4.0,4.0,41,0.00,CLR,SCT,0.00,0.0,WeatherDisplay:10.37,2017-12-18 21:53:00,
2017-12-18 13:54:00,52.7,29.6,30.14,ESE,110,4.0,4.0,41,0.00,CLR,SCT,0.00,0.0,WeatherDisplay:10.37,2017-12-18 21:54:00,
2017-12-18 13:59:00,52.9,29.2,30.14,ESE,104,3.5,3.5,40,0.00,CLR,SCT,0.00,0.0,WeatherDisplay:10.37,2017-12-18 21:59:00,
2017-12-18 14:00:00,52.9,29.2,30.14,ESE,104,3.5,3.5,40,0.00,CLR,SCT,0.00,0.0,WeatherDisplay:10.37,2017-12-18 22:00:00,
2017-12-18 14:03:00,53.0,29.9,30.13,ESE,105,2.3,2.3,41,0.00,CLR,SCT,0.00,0.0,WeatherDisplay:10.37,2017-12-18 22:03:00,
2017-12-18 14:05:00,53.0,32.8,30.14,ESE,105,1.1,0.0,46,0.00,CLR,SCT,0.00,0.0,WeatherDisplay:10.37,2017-12-18 22:05:00,
2017-12-18 14:10:00,52.8,29.7,30.14,ESE,115,3.5,3.5,41,0.00,CLR,SCT,0.00,0.0,WeatherDisplay:10.37,2017-12-18 22:10:00,
2017-12-18 14:12:00,52.8,30.3,30.14,ESE,115,3.5,3.5,42,0.00,CLR,SCT,0.00,0.0,WeatherDisplay:10.37,2017-12-18 22:12:00,
2017-12-18 14:15:00,52.6,31.8,30.14,ESE,115,2.3,2.3,45,0.00,CLR,SCT,0.00,0.0,WeatherDisplay:10.37,2017-12-18 22:15:00,
2017-12-18 14:17:00,52.4,30.5,30.14,East,98,3.5,3.5,43,0.00,CLR,SCT,0.00,0.0,WeatherDisplay:10.37,2017-12-18 22:17:00,
2017-12-18 14:22:00,51.9,32.8,30.14,East,98,0.0,0.0,48,0.00,CLR,SCT,0.00,0.0,WeatherDisplay:10.37,2017-12-18 22:22:00,
2017-12-18 14:23:00,51.8,33.2,30.14,East,98,0.0,0.0,49,0.00,CLR,SCT,0.00,0.0,WeatherDisplay:10.37,2017-12-18 22:23:00,
2017-12-18 14:26:00,51.3,33.8,30.14,East,98,0.0,0.0,51,0.00,CLR,SCT,0.00,0.0,WeatherDisplay:10.37,2017-12-18 22:26:00,
2017-12-18 14:28:00,51.1,33.6,30.14,East,98,0.0,0.0,51,0.00,CLR,SCT,0.00,0.0,WeatherDisplay:10.37,2017-12-18 22:28:00,
2017-12-18 14:34:00,50.6,34.1,30.14,East,98,0.0,0.0,53,0.00,CLR,SCT,0.00,0.0,WeatherDisplay:10.37,2017-12-18 22:34:00,
2017-12-18 14:39:00,50.4,33.9,30.14,East,98,0.0,0.0,53,0.00,CLR,SCT,0.00,0.0,WeatherDisplay:10.37,2017-12-18 22:39:00,
2017-12-18 14:44:00,50.1,34.5,30.14,East,98,0.0,0.0,55,0.00,CLR,SCT,0.00,0.0,WeatherDisplay:10.37,2017-12-18 22:44:00,
2017-12-18 14:45:00,50.1,34.5,30.14,East,98,0.0,0.0,55,0.00,CLR,SCT,0.00,0.0,WeatherDisplay:10.37,2017-12-18 22:45:00,